Station History

Weather Underground - logo

Station Historical Data
Daily Summary for September 22, 2017 Units:  English    Metric   Both
« Previous Day
Next Day »
Daily Weekly Monthly Yearly Custom
  High: Low: Average:
Temperature: TemperatureF °F 46.8 °F 60.3 °F
Dew Point: DewpointF °F 44.0 °F 47.8 °F
Humidity: Humidity % 36 % 66 %
Wind Speed: WindSpeedMPH mph 0.0 mph 1 mph
Wind Gust: WindSpeedGustMPH mph - -
Wind:- - SW
Pressure: PressureIn in 29.79 in -
Precipitation: 0.00 in    
Historical Graphs
 
 
Tabular Data for September 22, 2017
Time Temperature Dew Point Pressure Wind Wind Speed Wind Gust Humidity Rainfall Rate (Hourly)
TemperatureF °F DewpointF °F PressureIn in Calm     Humidity % HourlyPrecipIn in
00:01 56.2 °F 48.7 °F 29.85 in Calm     76 % 0.00 in
00:06 55.7 °F 48.9 °F 29.85 in Calm     78 % 0.00 in
00:11 55.4 °F 48.3 °F 29.85 in Calm     77 % 0.00 in
00:16 55.5 °F 48.4 °F 29.85 in Calm     77 % 0.00 in
00:21 55.1 °F 48.7 °F 29.85 in Calm     79 % 0.00 in
00:26 55.1 °F 48.4 °F 29.85 in Calm     78 % 0.00 in
00:31 55.1 °F 48.4 °F 29.85 in Calm     78 % 0.00 in
00:36 54.9 °F 48.5 °F 29.85 in Calm     79 % 0.00 in
00:41 54.8 °F 48.4 °F 29.85 in Calm     79 % 0.00 in
00:46 54.7 °F 48.3 °F 29.85 in Calm     79 % 0.00 in
00:51 54.8 °F 48.7 °F 29.85 in Calm     80 % 0.00 in
00:56 54.8 °F 48.4 °F 29.85 in Calm     79 % 0.00 in
01:01 54.9 °F 48.2 °F 29.85 in Calm     78 % 0.00 in
01:06 54.9 °F 48.5 °F 29.85 in Calm     79 % 0.00 in
01:11 54.7 °F 48.3 °F 29.85 in Calm     79 % 0.00 in
01:16 54.7 °F 48.6 °F 29.85 in Calm     80 % 0.00 in
01:21 54.6 °F 48.6 °F 29.85 in Calm     80 % 0.00 in
01:26 54.5 °F 48.1 °F 29.85 in Calm     79 % 0.00 in
01:32 54.7 °F 48.3 °F 29.85 in Calm     79 % 0.00 in
01:37 55.0 °F 48.3 °F 29.85 in NW 1.2 mph   78 % 0.00 in
01:42 55.3 °F 48.6 °F 29.85 in WNW 1.0 mph   78 % 0.00 in
01:47 55.3 °F 48.2 °F 29.86 in Calm     77 % 0.00 in
01:52 55.0 °F 48.3 °F 29.86 in Calm     78 % 0.00 in
01:57 54.5 °F 48.1 °F 29.85 in Calm     79 % 0.00 in
02:02 54.0 °F 48.3 °F 29.85 in Calm     81 % 0.00 in
02:07 53.6 °F 48.2 °F 29.85 in NW 11.5 mph   82 % 0.00 in
02:12 53.4 °F 48.0 °F 29.85 in Calm     82 % 0.00 in
02:17 53.3 °F 47.9 °F 29.85 in Calm     82 % 0.00 in
02:22 53.3 °F 47.9 °F 29.85 in Calm     82 % 0.00 in
02:27 53.4 °F 47.7 °F 29.85 in Calm     81 % 0.00 in
02:32 53.6 °F 47.9 °F 29.85 in Calm     81 % 0.00 in
02:37 53.7 °F 47.7 °F 29.85 in Calm     80 % 0.00 in
02:42 53.8 °F 47.8 °F 29.85 in WNW 1.2 mph   80 % 0.00 in
02:47 53.9 °F 47.9 °F 29.85 in Calm     80 % 0.00 in
02:52 53.7 °F 47.7 °F 29.86 in Calm     80 % 0.00 in
02:57 53.7 °F 47.7 °F 29.86 in Calm     80 % 0.00 in
03:02 53.5 °F 47.8 °F 29.86 in Calm     81 % 0.00 in
03:07 53.2 °F 47.5 °F 29.86 in Calm     81 % 0.00 in
03:12 52.8 °F 47.5 °F 29.85 in Calm     82 % 0.00 in
03:17 52.3 °F 47.3 °F 29.86 in Calm     83 % 0.00 in
03:22 51.8 °F 47.1 °F 29.86 in Calm     84 % 0.00 in
03:27 51.4 °F 47.4 °F 29.86 in Calm     86 % 0.00 in
03:32 51.2 °F 47.5 °F 29.86 in Calm     87 % 0.00 in
03:37 51.0 °F 47.3 °F 29.86 in Calm     87 % 0.00 in
03:42 50.9 °F 47.2 °F 29.86 in Calm     87 % 0.00 in
03:47 50.9 °F 47.5 °F 29.86 in Calm     88 % 0.00 in
03:52 50.8 °F 47.4 °F 29.86 in Calm     88 % 0.00 in
03:57 50.6 °F 47.2 °F 29.86 in Calm     88 % 0.00 in
04:02 50.4 °F 47.3 °F 29.85 in Calm     89 % 0.00 in
04:07 50.3 °F 47.2 °F 29.85 in Calm     89 % 0.00 in
04:12 50.1 °F 47.0 °F 29.85 in Calm     89 % 0.00 in
04:14 50.1 °F 47.0 °F 29.86 in Calm     89 % 0.00 in
04:19 50.0 °F 46.9 °F 29.86 in Calm     89 % 0.00 in
04:24 49.8 °F 46.7 °F 29.86 in Calm     89 % 0.00 in
04:29 49.5 °F 46.4 °F 29.86 in Calm     89 % 0.00 in
04:34 49.4 °F 46.3 °F 29.86 in Calm     89 % 0.00 in
04:39 49.2 °F 46.1 °F 29.86 in Calm     89 % 0.00 in
04:40 49.2 °F 46.1 °F 29.86 in Calm     89 % 0.00 in
04:45 48.9 °F 45.8 °F 29.86 in Calm     89 % 0.00 in
04:50 48.7 °F 45.6 °F 29.86 in Calm     89 % 0.00 in
04:55 48.5 °F 45.7 °F 29.86 in Calm     90 % 0.00 in
05:00 48.3 °F 45.5 °F 29.86 in Calm     90 % 0.00 in
05:05 48.1 °F 45.3 °F 29.86 in Calm     90 % 0.00 in
05:10 48.1 °F 45.6 °F 29.86 in Calm     91 % 0.00 in
05:15 48.2 °F 45.7 °F 29.86 in Calm     91 % 0.00 in
05:16 48.2 °F 45.7 °F 29.86 in Calm     91 % 0.00 in
05:21 48.2 °F 45.7 °F 29.86 in Calm     91 % 0.00 in
05:26 48.1 °F 45.6 °F 29.86 in Calm     91 % 0.00 in
05:31 48.1 °F 45.6 °F 29.86 in Calm     91 % 0.00 in
05:36 48.0 °F 45.5 °F 29.86 in Calm     91 % 0.00 in
05:41 47.9 °F 45.4 °F 29.86 in Calm     91 % 0.00 in
05:46 48.0 °F 45.5 °F 29.86 in Calm     91 % 0.00 in
05:51 48.0 °F 45.5 °F 29.86 in Calm     91 % 0.00 in
05:56 48.0 °F 45.5 °F 29.86 in Calm     91 % 0.00 in
06:01 47.8 °F 45.3 °F 29.87 in Calm     91 % 0.00 in
06:06 47.7 °F 45.2 °F 29.87 in Calm     91 % 0.00 in
06:11 47.5 °F 45.0 °F 29.87 in Calm     91 % 0.00 in
06:16 47.4 °F 44.9 °F 29.87 in Calm     91 % 0.00 in
06:21 47.3 °F 45.1 °F 29.88 in Calm     92 % 0.00 in
06:26 47.2 °F 45.0 °F 29.88 in Calm     92 % 0.00 in
06:31 47.1 °F 44.9 °F 29.88 in Calm     92 % 0.00 in
06:37 47.1 °F 44.9 °F 29.88 in Calm     92 % 0.00 in
06:42 47.0 °F 44.8 °F 29.88 in Calm     92 % 0.00 in
06:47 46.9 °F 44.4 °F 29.88 in Calm     91 % 0.00 in
06:52 46.8 °F 44.3 °F 29.89 in Calm     91 % 0.00 in
06:57 46.8 °F 44.3 °F 29.89 in Calm     91 % 0.00 in
07:02 46.9 °F 44.4 °F 29.89 in WNW 1.0 mph   91 % 0.00 in
07:07 47.1 °F 44.6 °F 29.89 in WNW 1.2 mph   91 % 0.00 in
07:12 47.2 °F 44.7 °F 29.89 in Calm     91 % 0.00 in
07:17 47.3 °F 44.8 °F 29.89 in WNW 1.2 mph 1.2 mph 91 % 0.00 in
07:22 47.5 °F 45.0 °F 29.90 in Calm     91 % 0.00 in
07:27 47.7 °F 45.5 °F 29.90 in Calm     92 % 0.00 in
07:32 48.0 °F 45.8 °F 29.90 in WNW 1.2 mph 1.2 mph 92 % 0.00 in
07:37 48.4 °F 45.9 °F 29.90 in Calm     91 % 0.00 in
07:42 48.8 °F 46.6 °F 29.90 in Calm     92 % 0.00 in
07:47 49.1 °F 46.9 °F 29.90 in WNW 1.2 mph   92 % 0.00 in
07:52 49.6 °F 47.4 °F 29.90 in NNW 1.2 mph 1.2 mph 92 % 0.00 in
07:57 50.0 °F 47.5 °F 29.90 in Calm     91 % 0.00 in
08:02 51.0 °F 48.5 °F 29.90 in West 1.2 mph 1.2 mph 91 % 0.00 in
08:07 52.2 °F 48.8 °F 29.91 in East 2.0 mph 2.0 mph 88 % 0.00 in
08:12 53.0 °F 49.2 °F 29.91 in East 1.2 mph 1.2 mph 87 % 0.00 in
08:17 53.8 °F 49.1 °F 29.91 in East 2.3 mph 2.3 mph 84 % 0.00 in
08:22 54.5 °F 49.1 °F 29.91 in East 2.0 mph 2.0 mph 82 % 0.00 in
08:27 55.0 °F 48.9 °F 29.91 in East 1.2 mph 1.2 mph 80 % 0.00 in
08:32 55.5 °F 49.4 °F 29.91 in Calm   0.2 mph 80 % 0.00 in
08:37 56.1 °F 49.7 °F 29.91 in East 3.5 mph 3.5 mph 79 % 0.00 in
08:42 56.4 °F 49.6 °F 29.91 in East 3.5 mph 3.5 mph 78 % 0.00 in
08:47 57.1 °F 50.3 °F 29.91 in East 2.3 mph   78 % 0.00 in
08:52 57.8 °F 49.9 °F 29.91 in East 2.3 mph 2.3 mph 75 % 0.00 in
08:57 58.2 °F 50.7 °F 29.92 in East 1.2 mph   76 % 0.00 in
09:02 58.8 °F 50.9 °F 29.92 in Calm     75 % 0.00 in
09:07 59.3 °F 50.6 °F 29.92 in East 2.3 mph 2.3 mph 73 % 0.00 in
09:12 59.8 °F 51.1 °F 29.92 in East 2.0 mph 2.0 mph 73 % 0.00 in
09:17 60.1 °F 50.7 °F 29.92 in East 2.3 mph 2.3 mph 71 % 0.00 in
09:22 59.9 °F 50.8 °F 29.92 in NE 3.5 mph 3.5 mph 72 % 0.00 in
09:23 59.9 °F 50.8 °F 29.92 in NE 1.2 mph 1.2 mph 72 % 0.00 in
09:28 60.3 °F 50.5 °F 29.92 in SE 3.5 mph 3.5 mph 70 % 0.00 in
09:33 60.4 °F 50.2 °F 29.92 in WNW 1.2 mph 1.2 mph 69 % 0.00 in
09:38 60.8 °F 50.6 °F 29.92 in East 1.2 mph 1.2 mph 69 % 0.00 in
09:43 60.7 °F 50.5 °F 29.92 in ENE 2.3 mph 2.3 mph 69 % 0.00 in
09:48 61.5 °F 50.8 °F 29.92 in SE 1.2 mph   68 % 0.00 in
09:53 61.6 °F 50.1 °F 29.92 in ESE 2.3 mph 2.3 mph 66 % 0.00 in
09:58 61.8 °F 50.3 °F 29.92 in ENE 2.0 mph 2.0 mph 66 % 0.00 in
10:03 62.6 °F 51.1 °F 29.92 in ENE 1.0 mph 1.0 mph 66 % 0.00 in
10:08 63.0 °F 50.6 °F 29.92 in SSW 2.3 mph 2.3 mph 64 % 0.00 in
10:13 63.6 °F 50.8 °F 29.92 in West 2.3 mph 2.3 mph 63 % 0.00 in
10:18 63.9 °F 51.1 °F 29.92 in SE 1.2 mph 1.2 mph 63 % 0.00 in
10:23 63.8 °F 50.1 °F 29.92 in West 1.2 mph 1.2 mph 61 % 0.00 in
10:28 63.8 °F 49.6 °F 29.92 in NNW 1.2 mph   60 % 0.00 in
10:33 63.9 °F 50.2 °F 29.92 in NW 2.0 mph 2.0 mph 61 % 0.00 in
10:38 64.1 °F 50.4 °F 29.92 in Calm     61 % 0.00 in
10:43 64.4 °F 50.7 °F 29.92 in WNW 1.0 mph 1.0 mph 61 % 0.00 in
10:48 64.7 °F 50.5 °F 29.92 in SE 2.0 mph 2.0 mph 60 % 0.00 in
10:53 65.2 °F 49.1 °F 29.92 in WNW 2.3 mph 2.3 mph 56 % 0.00 in
10:58 65.5 °F 50.3 °F 29.92 in North 2.3 mph 2.3 mph 58 % 0.00 in
11:03 65.6 °F 50.9 °F 29.91 in SSE 2.3 mph 2.3 mph 59 % 0.00 in
11:08 66.1 °F 49.9 °F 29.91 in ENE 3.5 mph 3.5 mph 56 % 0.00 in
11:13 66.4 °F 50.2 °F 29.91 in SE 2.3 mph 2.3 mph 56 % 0.00 in
11:18 66.7 °F 50.0 °F 29.91 in West 2.3 mph 2.3 mph 55 % 0.00 in
11:23 66.7 °F 50.0 °F 29.91 in WNW 2.0 mph 2.0 mph 55 % 0.00 in
11:28 66.7 °F 49.5 °F 29.90 in Calm     54 % 0.00 in
11:33 66.8 °F 49.1 °F 29.90 in WNW 2.3 mph 2.3 mph 53 % 0.00 in
11:38 67.2 °F 50.0 °F 29.90 in North 3.5 mph 3.5 mph 54 % 0.00 in
11:43 67.8 °F 51.5 °F 29.90 in ESE 2.3 mph 2.3 mph 56 % 0.00 in
11:48 68.1 °F 50.8 °F 29.90 in SSE 1.2 mph 1.2 mph 54 % 0.00 in
11:53 68.1 °F 50.3 °F 29.90 in NW 2.3 mph 2.3 mph 53 % 0.00 in
11:58 67.9 °F 49.6 °F 29.90 in NNW 2.3 mph 2.3 mph 52 % 0.00 in
12:03 67.8 °F 50.0 °F 29.90 in NW 3.5 mph 3.5 mph 53 % 0.00 in
12:08 68.0 °F 50.2 °F 29.89 in NW 2.0 mph 2.0 mph 53 % 0.00 in
12:13 68.5 °F 50.7 °F 29.89 in West 2.3 mph 2.3 mph 53 % 0.00 in
12:18 68.8 °F 51.0 °F 29.89 in NE 1.2 mph 1.2 mph 53 % 0.00 in
12:23 69.3 °F 50.9 °F 29.89 in ESE 1.2 mph 1.2 mph 52 % 0.00 in
12:28 69.8 °F 50.3 °F 29.89 in North 1.0 mph 1.3 mph 50 % 0.00 in
12:33 70.1 °F 51.1 °F 29.89 in WNW 2.3 mph 2.3 mph 51 % 0.00 in
12:38 69.7 °F 49.7 °F 29.88 in NW 1.2 mph 1.2 mph 49 % 0.00 in
12:44 69.5 °F 49.5 °F 29.88 in NW 3.0 mph 3.0 mph 49 % 0.00 in
12:49 69.4 °F 49.4 °F 29.88 in West 3.5 mph 3.5 mph 49 % 0.00 in
12:54 69.6 °F 49.0 °F 29.88 in NNW 2.3 mph 2.3 mph 48 % 0.00 in
12:59 70.0 °F 50.5 °F 29.88 in NW 3.5 mph 3.5 mph 50 % 0.00 in
13:04 70.4 °F 50.9 °F 29.87 in NW 2.3 mph 2.3 mph 50 % 0.00 in
13:09 69.9 °F 48.7 °F 29.87 in NW 2.3 mph 2.3 mph 47 % 0.00 in
13:14 70.0 °F 49.4 °F 29.87 in ENE 2.3 mph 2.3 mph 48 % 0.00 in
13:19 70.9 °F 50.2 °F 29.87 in NW 1.2 mph 1.2 mph 48 % 0.00 in
13:24 70.9 °F 49.1 °F 29.86 in NNW 2.3 mph 2.3 mph 46 % 0.00 in
13:29 71.2 °F 49.4 °F 29.86 in WNW 2.3 mph 2.3 mph 46 % 0.00 in
13:34 71.7 °F 50.4 °F 29.86 in West 2.3 mph 2.3 mph 47 % 0.00 in
13:39 72.0 °F 50.1 °F 29.86 in NNE 1.2 mph 1.2 mph 46 % 0.00 in
13:44 72.4 °F 49.3 °F 29.85 in North 1.2 mph 1.2 mph 44 % 0.00 in
13:49 72.8 °F 49.0 °F 29.85 in East 1.2 mph 1.2 mph 43 % 0.00 in
13:54 72.8 °F 49.0 °F 29.85 in NNE 2.3 mph 2.3 mph 43 % 0.00 in
13:59 72.7 °F 48.3 °F 29.85 in NW 2.3 mph 2.3 mph 42 % 0.00 in
14:04 72.7 °F 48.9 °F 29.84 in North 3.5 mph 3.5 mph 43 % 0.00 in
14:09 72.6 °F 48.2 °F 29.84 in NNW 3.5 mph 3.5 mph 42 % 0.00 in
14:14 72.6 °F 46.9 °F 29.84 in WNW 3.5 mph 3.5 mph 40 % 0.00 in
14:19 72.3 °F 46.6 °F 29.84 in WNW 1.2 mph 1.2 mph 40 % 0.00 in
14:24 72.5 °F 48.7 °F 29.84 in East 2.3 mph 2.3 mph 43 % 0.00 in
14:29 73.6 °F 50.3 °F 29.84 in ESE 1.2 mph 1.2 mph 44 % 0.00 in
14:34 74.1 °F 48.9 °F 29.83 in NNW 2.3 mph 2.3 mph 41 % 0.00 in
14:39 74.1 °F 49.5 °F 29.83 in East 1.2 mph   42 % 0.00 in
14:40 74.2 °F 49.6 °F 29.83 in East 1.2 mph   42 % 0.00 in
14:45 74.2 °F 49.0 °F 29.83 in South 1.2 mph   41 % 0.00 in
14:55 74.4 °F 47.8 °F 29.83 in NNE 2.3 mph 2.3 mph 39 % 0.00 in
15:00 74.6 °F 48.0 °F 29.82 in NNW 1.2 mph   39 % 0.00 in
15:05 74.9 °F 48.3 °F 29.82 in West 1.0 mph 1.0 mph 39 % 0.00 in
15:10 74.8 °F 46.8 °F 29.82 in NW 2.3 mph 2.3 mph 37 % 0.00 in
15:15 74.1 °F 46.9 °F 29.82 in North 3.0 mph 3.0 mph 38 % 0.00 in
15:20 73.6 °F 45.7 °F 29.82 in North 2.3 mph 2.3 mph 37 % 0.00 in
15:25 74.1 °F 46.9 °F 29.82 in NNW 3.0 mph 3.0 mph 38 % 0.00 in
15:30 73.9 °F 47.4 °F 29.82 in WNW 2.3 mph 2.3 mph 39 % 0.00 in
15:35 73.6 °F 46.4 °F 29.81 in NNE 2.3 mph 2.3 mph 38 % 0.00 in
15:40 73.6 °F 46.4 °F 29.81 in North 2.3 mph 2.3 mph 38 % 0.00 in
15:45 72.9 °F 45.8 °F 29.81 in WNW 2.3 mph 2.3 mph 38 % 0.00 in
15:50 72.8 °F 45.7 °F 29.81 in NW 1.2 mph 1.2 mph 38 % 0.00 in
15:55 73.1 °F 47.3 °F 29.81 in NW 3.5 mph 3.5 mph 40 % 0.00 in
16:00 73.1 °F 45.3 °F 29.81 in WNW 3.5 mph 3.5 mph 37 % 0.00 in
16:05 73.3 °F 46.2 °F 29.81 in NW 3.0 mph 3.0 mph 38 % 0.00 in
16:10 73.1 °F 46.0 °F 29.80 in NW 1.2 mph 1.2 mph 38 % 0.00 in
16:15 72.9 °F 45.8 °F 29.80 in NW 3.5 mph 3.5 mph 38 % 0.00 in
16:20 72.6 °F 44.8 °F 29.80 in NW 2.3 mph 2.3 mph 37 % 0.00 in
16:25 72.5 °F 44.7 °F 29.80 in NW 3.5 mph 3.5 mph 37 % 0.00 in
16:30 72.4 °F 44.6 °F 29.80 in North 3.5 mph 3.5 mph 37 % 0.00 in
16:35 72.5 °F 44.0 °F 29.80 in NNE 1.2 mph 1.2 mph 36 % 0.00 in
16:40 72.5 °F 45.4 °F 29.80 in NW 2.3 mph 2.3 mph 38 % 0.00 in
16:45 72.6 °F 44.8 °F 29.80 in North 2.3 mph 2.3 mph 37 % 0.00 in
16:50 72.5 °F 44.7 °F 29.80 in NW 1.2 mph 1.2 mph 37 % 0.00 in
16:55 72.7 °F 45.6 °F 29.80 in NW 2.3 mph 2.3 mph 38 % 0.00 in
17:00 72.8 °F 45.0 °F 29.80 in NW 3.0 mph 3.0 mph 37 % 0.00 in
17:05 72.7 °F 44.9 °F 29.80 in NNW 2.3 mph 2.3 mph 37 % 0.00 in
17:10 72.8 °F 45.7 °F 29.80 in Calm     38 % 0.00 in
17:15 72.5 °F 45.4 °F 29.80 in NW 2.3 mph 2.3 mph 38 % 0.00 in
17:20 72.0 °F 45.0 °F 29.80 in NNE 2.3 mph 2.3 mph 38 % 0.00 in
17:25 71.8 °F 44.8 °F 29.80 in NW 2.3 mph 2.3 mph 38 % 0.00 in
17:30 71.6 °F 45.3 °F 29.80 in NW 1.2 mph 1.2 mph 39 % 0.00 in
17:35 71.3 °F 45.1 °F 29.80 in WNW 6.9 mph 6.9 mph 39 % 0.00 in
17:40 71.3 °F 46.4 °F 29.80 in NNW 2.3 mph 2.3 mph 41 % 0.00 in
17:46 71.2 °F 45.6 °F 29.80 in NNW 1.2 mph 1.2 mph 40 % 0.00 in
17:51 70.9 °F 46.0 °F 29.80 in NW 2.0 mph 2.0 mph 41 % 0.00 in
17:56 70.7 °F 44.5 °F 29.80 in NW 2.3 mph 2.3 mph 39 % 0.00 in
18:01 70.5 °F 45.0 °F 29.80 in NW 2.3 mph 2.3 mph 40 % 0.00 in
18:06 70.3 °F 44.8 °F 29.80 in NW 2.3 mph 2.3 mph 40 % 0.00 in
18:11 70.1 °F 45.9 °F 29.80 in North 1.2 mph 1.2 mph 42 % 0.00 in
18:16 69.8 °F 46.3 °F 29.80 in NW 1.2 mph 1.2 mph 43 % 0.00 in
18:21 69.5 °F 46.0 °F 29.80 in Calm     43 % 0.00 in
18:26 69.2 °F 45.7 °F 29.80 in WNW 1.2 mph 1.2 mph 43 % 0.00 in
18:31 68.9 °F 46.1 °F 29.80 in Calm     44 % 0.00 in
18:36 68.5 °F 46.9 °F 29.80 in Calm     46 % 0.00 in
18:41 68.0 °F 46.4 °F 29.79 in WNW 1.2 mph 1.2 mph 46 % 0.00 in
18:46 67.7 °F 46.7 °F 29.79 in WSW 1.2 mph 1.2 mph 47 % 0.00 in
18:51 67.3 °F 46.4 °F 29.79 in Calm     47 % 0.00 in
18:56 67.0 °F 46.1 °F 29.79 in Calm     47 % 0.00 in
19:01 66.7 °F 46.4 °F 29.79 in Calm     48 % 0.00 in
19:06 66.5 °F 46.7 °F 29.80 in Calm     49 % 0.00 in
19:11 66.1 °F 46.4 °F 29.80 in Calm     49 % 0.00 in
19:16 65.8 °F 47.7 °F 29.80 in Calm     52 % 0.00 in
19:21 65.4 °F 46.8 °F 29.80 in Calm     51 % 0.00 in
19:26 65.0 °F 47.4 °F 29.80 in Calm     53 % 0.00 in
19:31 64.5 °F 47.5 °F 29.80 in Calm     54 % 0.00 in
19:36 64.1 °F 48.5 °F 29.80 in Calm     57 % 0.00 in
19:41 63.7 °F 48.2 °F 29.80 in Calm     57 % 0.00 in
19:46 63.4 °F 48.8 °F 29.80 in Calm     59 % 0.00 in
19:51 63.0 °F 48.4 °F 29.80 in Calm     59 % 0.00 in
19:56 62.7 °F 48.6 °F 29.80 in Calm     60 % 0.00 in
20:01 62.4 °F 48.3 °F 29.80 in Calm     60 % 0.00 in
20:06 62.2 °F 49.0 °F 29.80 in Calm     62 % 0.00 in
20:11 62.0 °F 48.8 °F 29.80 in Calm     62 % 0.00 in
20:16 61.8 °F 48.2 °F 29.81 in Calm     61 % 0.00 in
20:21 61.7 °F 48.5 °F 29.81 in Calm     62 % 0.00 in
20:26 61.4 °F 48.3 °F 29.80 in Calm     62 % 0.00 in
20:31 61.3 °F 48.2 °F 29.81 in Calm     62 % 0.00 in
20:36 61.3 °F 48.6 °F 29.81 in Calm     63 % 0.00 in
20:41 61.1 °F 48.8 °F 29.81 in Calm     64 % 0.00 in
20:46 60.9 °F 49.1 °F 29.81 in Calm     65 % 0.00 in
20:51 60.7 °F 49.3 °F 29.81 in Calm     66 % 0.00 in
20:57 60.4 °F 49.0 °F 29.81 in Calm     66 % 0.00 in
21:02 60.3 °F 49.7 °F 29.81 in Calm     68 % 0.00 in
21:07 60.1 °F 49.9 °F 29.81 in Calm     69 % 0.00 in
21:12 59.8 °F 48.8 °F 29.81 in Calm     67 % 0.00 in
21:17 59.5 °F 48.9 °F 29.81 in Calm     68 % 0.00 in
21:22 59.1 °F 48.1 °F 29.81 in Calm     67 % 0.00 in
21:27 59.0 °F 49.2 °F 29.81 in Calm     70 % 0.00 in
21:32 58.9 °F 48.7 °F 29.81 in Calm     69 % 0.00 in
21:37 59.1 °F 48.5 °F 29.81 in Calm     68 % 0.00 in
21:42 59.1 °F 48.5 °F 29.81 in Calm     68 % 0.00 in
21:47 59.0 °F 48.4 °F 29.81 in Calm     68 % 0.00 in
21:52 59.0 °F 48.4 °F 29.81 in Calm     68 % 0.00 in
21:57 58.9 °F 48.0 °F 29.81 in Calm     67 % 0.00 in
22:02 58.7 °F 48.9 °F 29.81 in Calm     70 % 0.00 in
22:07 58.5 °F 49.1 °F 29.81 in Calm     71 % 0.00 in
22:12 58.4 °F 49.0 °F 29.82 in Calm     71 % 0.00 in
22:17 58.3 °F 49.3 °F 29.81 in Calm     72 % 0.00 in
22:22 58.3 °F 50.0 °F 29.82 in Calm     74 % 0.00 in
22:27 58.2 °F 49.2 °F 29.82 in Calm     72 % 0.00 in
22:32 58.0 °F 49.4 °F 29.82 in Calm     73 % 0.00 in
22:37 57.8 °F 49.9 °F 29.82 in Calm     75 % 0.00 in
22:42 57.6 °F 50.1 °F 29.81 in Calm     76 % 0.00 in
22:52 57.3 °F 50.5 °F 29.82 in Calm     78 % 0.00 in
22:57 57.0 °F 50.2 °F 29.82 in Calm     78 % 0.00 in
23:02 56.8 °F 49.7 °F 29.82 in Calm     77 % 0.00 in
23:07 56.8 °F 50.0 °F 29.82 in Calm     78 % 0.00 in
23:12 56.6 °F 50.2 °F 29.82 in Calm     79 % 0.00 in
23:17 56.2 °F 49.8 °F 29.82 in Calm     79 % 0.00 in
23:22 55.7 °F 49.6 °F 29.81 in Calm     80 % 0.00 in
23:27 55.2 °F 49.5 °F 29.81 in Calm     81 % 0.00 in
23:32 55.0 °F 49.6 °F 29.81 in Calm     82 % 0.00 in
23:37 54.9 °F 49.8 °F 29.81 in Calm     83 % 0.00 in
23:42 54.9 °F 49.8 °F 29.81 in Calm     83 % 0.00 in
23:47 54.8 °F 50.1 °F 29.81 in Calm     84 % 0.00 in
23:52 54.7 °F 50.0 °F 29.82 in Calm     84 % 0.00 in
23:57 54.7 °F 50.0 °F 29.82 in Calm     84 % 0.00 in
Park Place, Exeter, Tulare County, California, USA
Compliments of Weather Underground - 2.75 mb